Simultaneous Nadir Overpasses (SNOs) Predictions

Prediction of SNOs between GOES-17 and METOP-A Satellite Orbit:

Table of predicted SNOs for the next 14.0 days since TLE Epoch: 11/28/2020
Index Date Time (GOES-17) GOES-17 Lat,Lon METOP-A Lat,Lon Distance(km) Time Diff (sec)
1 11/29/2020 17:34:38 -0.05,-137.25 -0.19,-136.74 58.66 80
2 12/01/2020 05:53:38 0.04,-137.24 -0.85,-141.37 470.05 80
3 12/02/2020 05:30:18 0.04,-137.24 0.20,-136.38 96.91 80
4 12/03/2020 17:49:10 -0.03,-137.24 0.77,-140.99 426.65 80
5 12/04/2020 17:31:09 -0.03,-137.23 -0.28,-136.00 139.89 80
6 12/06/2020 05:50:10 0.03,-137.21 -0.75,-140.63 390.17 80
7 12/07/2020 05:26:50 0.02,-137.20 0.36,-135.65 175.93 80
8 12/08/2020 17:45:41 -0.02,-137.19 0.67,-140.25 348.78 80
9 12/09/2020 17:27:42 -0.02,-137.17 -0.45,-135.27 217.07 80
10 12/11/2020 05:46:42 0.02,-137.14 -0.58,-139.90 313.95 80
11 12/12/2020 05:23:22 0.02,-137.13 0.47,-134.91 251.43 80
